Weather History for KENW - November, 2013

Change the Weather History Date:

Saturday, November 16, 2013

  Actual Average Record
Temperature  
Mean Temperature 48 °F -  
Max Temperature 61 °F 47 °F 69 °F (1953)
Min Temperature 37 °F 30 °F 5 °F (1959)
Degree Days  
Heating Degree Days 16    
Moisture  
Dew Point 47 °F    
Average Humidity 87    
Maximum Humidity 94    
Minimum Humidity 77    
Precipitation  
Precipitation 0.14 in - - ()
Sea Level Pressure  
Sea Level Pressure 29.75 in    
Wind  
Wind Speed 13 mph (South)    
Max Wind Speed 23 mph    
Max Gust Speed 33 mph    
Visibility 4 miles    
Events Rain    
Averages and records for this station are not official NWS values.
T = Trace of Precipitation, MM = Missing Value Source: NWS Daily Summary

Daily Weather History Graph

Daily Weather History Graph

Search for Another Location

Airport or City:

Trip Planner

Search our weather history database for the weather conditions in past years. The results will help you decide how hot, cold, wet, or windy it might be!

Date:

Astronomy

Nov. 16, 2013 Rise Set
Actual Time 6:44 AM CST 4:28 PM CST
Civil Twilight 6:14 AM CST 4:58 PM CST
Nautical Twilight 5:40 AM CST 5:32 PM CST
Astronomical Twilight 5:06 AM CST 6:06 PM CST
Moon 4:03 PM CST (11/16) 5:39 AM CST (11/16)
Length of Visible Light 10h 44m
Length of Day
9h 43m
Waxing Gibbous, 99% of the Moon is Illuminated
Nov 16
Waxing Gibbous
Nov 17
Full
Nov 25
Last Quarter
Dec 2
New
Dec 9
First Quarter

Hourly Weather History & Observations

Time (CST) Temp. Windchill Dew Point Humidity Pressure Visibility Wind Dir Wind Speed Gust Speed Precip Events Conditions
12:53 AM 39.9 °F 33.9 °F 33.1 °F 77% 29.93 in 10.0 mi South 9.2 mph - N/A   Clear
1:53 AM 39.0 °F 34.8 °F 33.1 °F 79% 29.92 in 10.0 mi South 5.8 mph - N/A   Clear
2:53 AM 37.0 °F 32.4 °F 32.0 °F 82% 29.93 in 9.0 mi South 5.8 mph - N/A   Partly Cloudy
3:18 AM 39.9 °F 35.8 °F 35.1 °F 83% 29.90 in 9.0 mi SSE 5.8 mph - N/A   Mostly Cloudy
3:53 AM 41.0 °F 35.2 °F 36.0 °F 82% 29.90 in 8.0 mi SSE 9.2 mph - N/A   Mostly Cloudy
4:27 AM 44.1 °F 37.1 °F 39.0 °F 82% 29.90 in 6.0 mi SSW 15.0 mph - N/A   Haze
4:53 AM 44.1 °F 38.6 °F 41.0 °F 89% 29.90 in 4.0 mi South 10.4 mph - N/A   Overcast
5:05 AM 44.1 °F 38.6 °F 41.0 °F 89% 29.89 in 2.5 mi South 10.4 mph - N/A   Overcast
5:26 AM 44.1 °F 39.0 °F 41.0 °F 89% 29.88 in 1.8 mi South 9.2 mph - N/A   Overcast
5:53 AM 44.1 °F 38.6 °F 42.1 °F 93% 29.89 in 1.5 mi South 10.4 mph - N/A   Overcast
6:01 AM 45.0 °F 39.3 °F 42.1 °F 90% 29.87 in 1.2 mi South 11.5 mph - N/A   Overcast
6:53 AM 46.0 °F 40.2 °F 44.1 °F 93% 29.87 in 1.2 mi South 12.7 mph - N/A   Overcast
7:22 AM 46.9 °F - 44.1 °F 90% 29.84 in 1.0 mi South 11.5 mph - N/A   Overcast
7:53 AM 48.0 °F - 45.0 °F 89% 29.87 in 1.0 mi South 12.7 mph 19.6 mph N/A   Overcast
8:53 AM 48.0 °F - 46.0 °F 93% 29.85 in 1.2 mi South 11.5 mph - N/A   Overcast
9:23 AM 48.9 °F - 46.0 °F 90% 29.82 in 2.0 mi South 19.6 mph 24.2 mph N/A   Overcast
9:36 AM 50.0 °F - 46.9 °F 89% 29.81 in 1.2 mi South 18.4 mph 26.5 mph N/A   Overcast
9:53 AM 50.0 °F - 46.9 °F 89% 29.83 in 1.2 mi South 17.3 mph 25.3 mph N/A   Overcast
10:53 AM 51.1 °F - 48.0 °F 89% 29.80 in 1.5 mi South 13.8 mph - N/A   Overcast
11:10 AM 51.1 °F - 48.0 °F 89% 29.78 in 2.0 mi South 15.0 mph - N/A   Overcast
11:53 AM 52.0 °F - 48.9 °F 89% 29.76 in 2.5 mi South 19.6 mph 32.2 mph N/A   Overcast
12:53 PM 53.1 °F - 48.9 °F 86% 29.71 in 3.0 mi South 18.4 mph 29.9 mph 0.00 in Rain Light Rain
1:53 PM 53.1 °F - 50.0 °F 89% 29.71 in 3.0 mi South 17.3 mph 33.4 mph 0.01 in Rain Rain
1:59 PM 54.0 °F - 50.0 °F 86% 29.69 in 1.8 mi South 20.7 mph 28.8 mph 0.01 in Rain Rain
2:50 PM 53.6 °F - 51.8 °F 94% 29.66 in 2.0 mi South 19.6 mph 27.6 mph 0.04 in   Overcast
2:53 PM 54.0 °F - 51.1 °F 90% 29.67 in 2.0 mi South 18.4 mph 27.6 mph 0.04 in   Overcast
3:53 PM 55.0 °F - 51.1 °F 86% 29.62 in 3.0 mi SSE 17.3 mph - 0.00 in Rain Light Rain
4:53 PM 55.9 °F - 52.0 °F 87% 29.61 in 7.0 mi South 17.3 mph 26.5 mph 0.00 in Rain Light Rain
5:53 PM 57.0 °F - 53.1 °F 87% 29.58 in 5.0 mi South 23.0 mph 31.1 mph 0.03 in Rain Light Rain
6:23 PM 57.0 °F - 53.1 °F 87% 29.57 in 8.0 mi South 19.6 mph 31.1 mph 0.01 in   Overcast
6:53 PM 57.0 °F - 54.0 °F 89% 29.57 in 5.0 mi South 18.4 mph 32.2 mph 0.03 in Rain Light Rain
7:53 PM 57.0 °F - 54.0 °F 89% 29.57 in 5.0 mi SSW 20.7 mph 25.3 mph 0.02 in Rain Light Rain
8:01 PM 57.0 °F - 54.0 °F 89% 29.56 in 4.0 mi South 17.3 mph 27.6 mph 0.01 in Rain Light Rain
8:53 PM 57.9 °F - 54.0 °F 87% 29.57 in 10.0 mi South 21.9 mph 29.9 mph 0.01 in   Overcast
9:53 PM 59.0 °F - 55.0 °F 87% 29.57 in 7.0 mi SSW 17.3 mph 31.1 mph N/A   Overcast
10:53 PM 60.1 °F - 55.0 °F 83% 29.56 in 7.0 mi SW 15.0 mph 26.5 mph N/A   Overcast
11:17 PM 60.1 °F - 55.0 °F 83% 29.56 in 7.0 mi SSW 17.3 mph 26.5 mph N/A   Overcast
11:53 PM 61.0 °F - 55.0 °F 81% 29.55 in 8.0 mi SSW 17.3 mph 23.0 mph N/A   Overcast